Weather History for Springfield, IL

Change the Weather History Date:

Friday, June 29, 2012

  Actual Average Record
Temperature  
Mean Temperature 87 °F 75 °F  
Max Temperature 101 °F 86 °F 103 °F (1936)
Min Temperature 72 °F 65 °F 50 °F (2004)
Degree Days  
Heating Degree Days 0 0  
Month to date heating degree days 11  
Since 1 June heating degree days 11  
Since 1 July heating degree days 5481  
Cooling Degree Days 22 10  
Month to date cooling degree days 239 228  
Year to date cooling degree days 496 332  
Since 1 June cooling degree days 239 228  
Growing Degree Days 36 (Base 50)    
Moisture  
Dew Point 69 °F    
Average Humidity 60    
Maximum Humidity 87    
Minimum Humidity 33    
Precipitation  
Precipitation 0.00 in 0.14 in 1.45 in (1998)
Month to date precipitation 0.68 4.33  
Year to date precipitation 14.19 18.34  
Snow  
Snow 0.00 in 0.00 in 0.00 in ()
Month to date snowfall 0.0 0.0  
Since 1 June snowfall 0.0 0.0  
Since 1 July snowfall 9.2 20.9  
Snow Depth 0.00 in    
Sea Level Pressure  
Sea Level Pressure 29.84 in    
Wind  
Wind Speed 6 mph (WSW)    
Max Wind Speed 17 mph    
Max Gust Speed 24 mph    
Visibility 10 miles    
Events      
T = Trace of Precipitation, MM = Missing Value Source: NWS Daily Summary

Daily Weather History Graph

Daily Weather History Graph

Search for Another Location

Airport:

Trip Planner

Search our weather history database for the weather conditions in past years. The results will help you decide how hot, cold, wet, or windy it might be!

Date:

Astronomy

Jun. 29, 2012 Rise Set
Actual Time 5:33 AM CDT 8:31 PM CDT
Civil Twilight 5:00 AM CDT 9:03 PM CDT
Nautical Twilight 4:19 AM CDT 9:44 PM CDT
Astronomical Twilight 3:31 AM CDT 10:32 PM CDT
Moon 4:17 PM CDT (6/29) 1:44 AM CDT (6/29)
Length of Visible Light 16h 02m
Length of Day
14h 57m
Waxing Gibbous, 78% of the Moon is Illuminated
Jun 29
Waxing Gibbous
Jul 3
Full
Jul 10
Last Quarter
Jul 18
New
Jul 26
First Quarter

Hourly Weather History & Observations

Time (CDT) Temp. Heat Index Dew Point Humidity Pressure Visibility Wind Dir Wind Speed Gust Speed Precip Events Conditions
12:52 AM 77.0 °F - 72.0 °F 84% 29.87 in 10.0 mi WSW 3.5 mph - N/A   Clear
1:52 AM 75.0 °F - 71.1 °F 87% 29.87 in 10.0 mi Calm Calm - N/A   Clear
2:52 AM 75.0 °F - 70.0 °F 84% 29.86 in 10.0 mi West 5.8 mph - N/A   Clear
3:52 AM 75.2 °F - 68.0 °F 78% 29.88 in 10.0 mi WNW 4.6 mph - N/A   Clear
4:52 AM 73.9 °F - 68.0 °F 82% 29.88 in 10.0 mi WSW 4.6 mph - N/A   Clear
5:52 AM 73.0 °F - 66.9 °F 81% 29.88 in 9.0 mi WSW 4.6 mph - N/A   Clear
6:52 AM 75.2 °F - 68.0 °F 78% 29.91 in 10.0 mi WSW 3.5 mph - N/A   Clear
7:52 AM 82.0 °F 86.3 °F 71.1 °F 69% 29.89 in 10.0 mi WSW 6.9 mph - N/A   Clear
8:52 AM 87.1 °F 92.8 °F 71.1 °F 59% 29.89 in 10.0 mi WSW 5.8 mph - N/A   Clear
9:52 AM 89.1 °F 95.0 °F 71.1 °F 55% 29.88 in 10.0 mi WSW 9.2 mph - N/A   Clear
10:52 AM 91.0 °F 96.6 °F 70.0 °F 50% 29.86 in 10.0 mi WSW 9.2 mph - N/A   Clear
11:52 AM 96.1 °F 101.6 °F 69.1 °F 41% 29.90 in 10.0 mi West 9.2 mph - N/A   Clear
12:52 PM 97.0 °F 102.2 °F 68.0 °F 39% 29.90 in 10.0 mi WNW 8.1 mph - 0.00 in   Clear
1:52 PM 99.0 °F 106.2 °F 70.0 °F 39% 29.87 in 10.0 mi WSW 6.9 mph - N/A   Clear
2:52 PM 100.9 °F 105.3 °F 66.0 °F 32% 29.84 in 10.0 mi West 4.6 mph - N/A   Clear
3:52 PM 99.0 °F 104.2 °F 68.0 °F 36% 29.83 in 10.0 mi WSW 9.2 mph - N/A   Clear
4:52 PM 97.0 °F 102.2 °F 68.0 °F 39% 29.80 in 10.0 mi SW 10.4 mph - N/A   Clear
5:52 PM 95.0 °F 97.0 °F 64.0 °F 36% 29.78 in 10.0 mi SW 5.8 mph - N/A   Clear
6:52 PM 91.0 °F 95.6 °F 69.1 °F 48% 29.77 in 10.0 mi SSW 6.9 mph - N/A   Clear
7:52 PM 89.1 °F 93.7 °F 69.1 °F 52% 29.77 in 10.0 mi South 4.6 mph - N/A   Clear
8:52 PM 84.0 °F 87.8 °F 69.1 °F 61% 29.76 in 10.0 mi South 5.8 mph - N/A   Clear
9:52 PM 82.0 °F 85.9 °F 70.0 °F 67% 29.78 in 10.0 mi Calm Calm - N/A   Clear
10:52 PM 78.1 °F - 70.0 °F 76% 29.78 in 10.0 mi Calm Calm - N/A   Clear
11:52 PM 75.9 °F - 70.0 °F 82% 29.78 in 10.0 mi Calm Calm - N/A   Clear